AAL350 KPHL-KMIA

Flight info

Callsign AAL350
Flight time N/A
Altitude 36000
Route OOD TEBEE HAYDO TRPOD Q409 CRPLR BGBRD Q101 SKARP Y313 HOAGG BNFSH2
Aircraft B737/M-SDE2E3FGHIRWXY/LB1

Departure

Time 2026-05-07 01:09
Airport Philadelphia International Airport (KPHL)

Arrival

Time N/A
Airport Miami International Airport (KMIA)
Time Latitude Longitude Altitude Speed Heading
2026-05-07 00:53 39.87237 -75.25159 18 ft 0 kts 324°
2026-05-07 01:01 39.87225 -75.25149 0 ft 2 kts 335°
2026-05-07 01:01 39.87209 -75.25141 24 ft 2 kts 351°
2026-05-07 01:01 39.87193 -75.25142 18 ft 2 kts 27°
2026-05-07 01:01 39.87181 -75.25155 19 ft 2 kts 60°
2026-05-07 01:02 39.87176 -75.25168 20 ft 1 kts 71°
2026-05-07 01:02 39.87176 -75.25169 20 ft 0 kts 72°
2026-05-07 01:04 39.87178 -75.25151 19 ft 10 kts 81°
2026-05-07 01:04 39.87173 -75.25006 15 ft 23 kts 91°
2026-05-07 01:04 39.87219 -75.24760 19 ft 33 kts 76°
2026-05-07 01:05 39.87273 -75.24471 22 ft 35 kts 75°
2026-05-07 01:05 39.87299 -75.24210 24 ft 26 kts 122°
2026-05-07 01:05 39.87132 -75.24098 24 ft 31 kts 158°
2026-05-07 01:05 39.86997 -75.24042 22 ft 16 kts 164°
2026-05-07 01:06 39.86940 -75.24028 21 ft 1 kts 173°
2026-05-07 01:06 39.86913 -75.23998 20 ft 11 kts 133°
2026-05-07 01:06 39.86895 -75.23968 19 ft 0 kts 127°
2026-05-07 01:08 39.86858 -75.23938 17 ft 18 kts 167°
2026-05-07 01:08 39.86791 -75.23977 16 ft 1 kts 256°
2026-05-07 01:08 39.86787 -75.23998 15 ft 3 kts 256°
2026-05-07 01:08 39.86781 -75.24028 16 ft 4 kts 257°
2026-05-07 01:09 39.86753 -75.24181 17 ft 57 kts 256°
2026-05-07 01:09 39.86564 -75.25095 27 ft 148 kts 253°
2026-05-07 01:09 39.86282 -75.26425 1113 ft 142 kts 256°
2026-05-07 01:09 39.85860 -75.27491 2504 ft 131 kts 224°
2026-05-07 01:10 39.85098 -75.28090 3618 ft 132 kts 218°
2026-05-07 01:10 39.84191 -75.28820 3986 ft 171 kts 218°
2026-05-07 01:10 39.83105 -75.29733 4382 ft 196 kts 218°
2026-05-07 01:10 39.81900 -75.30664 4892 ft 214 kts 206°
2026-05-07 01:11 39.80315 -75.30935 5238 ft 240 kts 189°
2026-05-07 01:11 39.78629 -75.31045 5917 ft 243 kts 189°
2026-05-07 01:11 39.76943 -75.31173 6682 ft 243 kts 190°
2026-05-07 01:11 39.75246 -75.31325 7348 ft 246 kts 191°
2026-05-07 01:12 39.73540 -75.31495 8062 ft 247 kts 192°
2026-05-07 01:12 39.71820 -75.31680 8754 ft 249 kts 192°
2026-05-07 01:12 39.70085 -75.31877 9455 ft 251 kts 193°
2026-05-07 01:12 39.68340 -75.32082 10192 ft 252 kts 193°
2026-05-07 01:13 39.66591 -75.32293 10872 ft 254 kts 193°
2026-05-07 01:13 39.64826 -75.32510 11542 ft 256 kts 193°
2026-05-07 01:13 39.63046 -75.32732 12218 ft 258 kts 194°
2026-05-07 01:13 39.61272 -75.32954 12866 ft 261 kts 194°
2026-05-07 01:14 39.59433 -75.33190 13347 ft 276 kts 194°
2026-05-07 01:14 39.57427 -75.33459 13549 ft 303 kts 193°
2026-05-07 01:14 39.55242 -75.33749 13752 ft 327 kts 193°
2026-05-07 01:14 39.52926 -75.34045 14234 ft 339 kts 192°
2026-05-07 01:15 39.50557 -75.34340 14915 ft 344 kts 193°
2026-05-07 01:15 39.48161 -75.34636 15649 ft 348 kts 193°
2026-05-07 01:15 39.45734 -75.34938 16357 ft 353 kts 193°
2026-05-07 01:15 39.43265 -75.35249 17013 ft 359 kts 193°
2026-05-07 01:16 39.40761 -75.35566 17666 ft 364 kts 194°
2026-05-07 01:16 39.38223 -75.35887 18309 ft 369 kts 194°
2026-05-07 01:16 39.35652 -75.36212 18924 ft 372 kts 195°
2026-05-07 01:16 39.33066 -75.36539 19555 ft 374 kts 195°
2026-05-07 01:17 39.30468 -75.36866 20183 ft 377 kts 195°
2026-05-07 01:17 39.27840 -75.37199 20799 ft 380 kts 196°
2026-05-07 01:17 39.25197 -75.37533 21392 ft 383 kts 196°
2026-05-07 01:17 39.22573 -75.37865 21975 ft 386 kts 197°
2026-05-07 01:18 39.19860 -75.38215 22559 ft 387 kts 198°
2026-05-07 01:18 39.17182 -75.38644 23116 ft 389 kts 199°
2026-05-07 01:18 39.14533 -75.39123 23623 ft 391 kts 200°
2026-05-07 01:18 39.11836 -75.39627 24090 ft 393 kts 200°
2026-05-07 01:19 39.09086 -75.40139 24559 ft 395 kts 200°
2026-05-07 01:19 39.06392 -75.40634 25007 ft 397 kts 200°
2026-05-07 01:19 39.03637 -75.41134 25455 ft 400 kts 200°
2026-05-07 01:19 39.00872 -75.41630 25896 ft 402 kts 200°
2026-05-07 01:20 38.98096 -75.42125 26351 ft 404 kts 200°
2026-05-07 01:20 38.95299 -75.42621 26756 ft 407 kts 200°
2026-05-07 01:20 38.92483 -75.43121 27150 ft 409 kts 200°
2026-05-07 01:20 38.89652 -75.43622 27566 ft 412 kts 200°
2026-05-07 01:21 38.86807 -75.44124 27963 ft 414 kts 200°
2026-05-07 01:21 38.83949 -75.44628 28363 ft 416 kts 200°
2026-05-07 01:21 38.81070 -75.45136 28755 ft 418 kts 200°
2026-05-07 01:21 38.78184 -75.45644 29135 ft 420 kts 200°
2026-05-07 01:22 38.75300 -75.46151 29608 ft 419 kts 200°
2026-05-07 01:22 38.72424 -75.46652 30173 ft 415 kts 200°
2026-05-07 01:22 38.69565 -75.47150 30678 ft 412 kts 200°
2026-05-07 01:22 38.66716 -75.47650 31053 ft 413 kts 200°
2026-05-07 01:23 38.63867 -75.48154 31395 ft 414 kts 200°
2026-05-07 01:23 38.61013 -75.48657 31800 ft 413 kts 200°
2026-05-07 01:23 38.58172 -75.49155 32232 ft 411 kts 201°
2026-05-07 01:23 38.55338 -75.49652 32636 ft 411 kts 201°
2026-05-07 01:24 38.52507 -75.50148 32998 ft 411 kts 201°
2026-05-07 01:24 38.49673 -75.50645 33384 ft 411 kts 201°